カタログに戻る

THORAD AGENA D DEB

運用中SSO
NORAD 4772·DEBRIS·🇺🇸 United States

打ち上げ Apr 8, 1970 から Vandenberg Space Force Base

Loading…

次のパス

TLE

Source: Space-Track
1  4772U 70025DS  26221.89026756  .00000310  00000-0  71739-3 0  9994
2  4772  99.7676  14.5808 0182328 161.0967   2.1544 13.27049257709299

AllMySatでTHORAD AGENA D DEBをリアルタイム追跡

Download on the App Store